Hope, British Columbia

1:37 PM PDT on September 25, 2016 (GMT -0700)
Hope

Weather History for CYHE - March, 2013

Change the Weather History Date:

Sunday, March 17, 2013

  Actual Average Record
Temperature  
Mean Temperature 41 °F -  
Max Temperature 46 °F 47 °F 57 °F (1998)
Min Temperature 36 °F 35 °F 26 °F (2002)
Degree Days  
Heating Degree Days 24    
Moisture  
Dew Point 34 °F    
Average Humidity 80    
Maximum Humidity 93    
Minimum Humidity 42    
Precipitation  
Precipitation 0.20 in - - ()
Sea Level Pressure  
Sea Level Pressure 30.04 in    
Wind  
Wind Speed 11 mph ()    
Max Wind Speed 20 mph    
Max Gust Speed 33 mph    
Visibility 7.7 miles    
Events Rain    
Averages and records for this station are not official NWS values.
T = Trace of Precipitation, MM = Missing Value Source: Averaged Metar Reports

Daily Weather History Graph

Daily Weather History Graph

Search for Another Location

Airport or City:

Trip Planner

Search our weather history database for the weather conditions in past years. The results will help you decide how hot, cold, wet, or windy it might be!

Date:

Astronomy

Mar. 17, 2013 Rise Set
Actual Time 7:14 AM PDT 7:14 PM PDT
Civil Twilight 6:42 AM PDT 7:46 PM PDT
Nautical Twilight 6:05 AM PDT 8:24 PM PDT
Astronomical Twilight 5:27 AM PDT 9:02 PM PDT
Moon 10:01 AM PDT (3/17) 12:56 AM PDT (3/17)
Length of Visible Light 13h 04m
Length of Day
12h 00m
Waxing Crescent, 32% of the Moon is Illuminated
Mar 17
Waxing Crescent
Mar 19
First Quarter
Mar 27
Full
Apr 2
Last Quarter
Apr 10
New

Hourly Weather History & Observations

Time (PDT) Temp. Windchill Dew Point Humidity Pressure Visibility Wind Dir Wind Speed Gust Speed Precip Events Conditions
12:00 AM 39.2 °F 31.6 °F 35.6 °F 87% 29.85 in 7.0 mi WNW 12.7 mph 24.2 mph N/A Rain Light Rain
12:06 AM 39.2 °F 30.8 °F 35.6 °F 87% 29.85 in 5.0 mi West 15.0 mph 24.2 mph N/A Rain Light Rain
12:45 AM 39.2 °F 32.5 °F 35.6 °F 87% 29.86 in 6.0 mi WSW 10.4 mph 21.9 mph N/A Rain Light Rain
1:00 AM 39.2 °F 32.5 °F 35.6 °F 87% 29.86 in 9.0 mi West 10.4 mph 17.3 mph N/A Rain Light Rain
1:25 AM 39.2 °F 30.8 °F 35.6 °F 87% 29.87 in 5.0 mi WSW 15.0 mph 24.2 mph N/A Rain Light Rain
2:00 AM 38 °F - 36 °F 88%  in - North 10.4 mph - -  
2:00 AM 39.2 °F 31.2 °F 35.6 °F 87% 29.89 in 3.0 mi West 13.8 mph - N/A Rain Light Rain
2:41 AM 39.2 °F 33.0 °F 35.6 °F 87% 29.91 in 6.0 mi WSW 9.2 mph 20.7 mph N/A Rain Light Rain
3:00 AM 39.2 °F 31.6 °F 35.6 °F 87% 29.91 in 7.0 mi West 12.7 mph 20.7 mph N/A Rain Light Rain
3:07 AM 39.2 °F 30.8 °F 35.6 °F 87% 29.91 in 5.0 mi WSW 15.0 mph 24.2 mph N/A Rain Light Rain
3:19 AM 39.2 °F 32.0 °F 35.6 °F 87% 29.92 in 6.0 mi West 11.5 mph 21.9 mph N/A Rain Light Rain
3:36 AM 39.2 °F 30.8 °F 35.6 °F 87% 29.92 in 5.0 mi West 15.0 mph 23.0 mph N/A Rain Light Rain
3:55 AM 37.4 °F 30.3 °F 35.6 °F 93% 29.93 in 6.0 mi West 10.4 mph 20.7 mph N/A Rain Rain
4:00 AM 37.4 °F 28.5 °F 35.6 °F 93% 29.93 in 8.0 mi West 15.0 mph 20.7 mph N/A Rain Rain
5:00 AM 39 °F - 35 °F 80%  in - Calm Calm - -  
5:00 AM 39.2 °F 31.2 °F 33.8 °F 81% 29.95 in 9.0 mi West 13.8 mph 24.2 mph N/A Rain Rain
6:00 AM 39.2 °F 30.5 °F 33.8 °F 81% 29.98 in 9.0 mi WNW 16.1 mph 26.5 mph N/A Rain Light Rain
7:00 AM 37.4 °F 28.2 °F 33.8 °F 87% 30.00 in 9.0 mi West 16.1 mph 26.5 mph N/A Rain Light Rain
7:30 AM 37.4 °F 29.3 °F 33.8 °F 87% 30.01 in 5.0 mi West 12.7 mph 23.0 mph N/A Rain Light Rain
7:50 AM 37.4 °F 29.8 °F 35.6 °F 93% 30.03 in 6.0 mi SW 11.5 mph 23.0 mph N/A Rain Light Rain
8:00 AM 38 °F - 35 °F 83%  in - WSW 11.5 mph - -  
8:00 AM 37.4 °F 30.3 °F 33.8 °F 87% 30.02 in 8.0 mi West 10.4 mph 19.6 mph N/A Rain Light Rain
8:59 AM 37.4 °F 28.5 °F 35.6 °F 93% 30.05 in 5.0 mi West 15.0 mph 21.9 mph N/A Rain Rain
9:00 AM 37.4 °F 28.2 °F 35.6 °F 93% 30.05 in 5.0 mi WSW 16.1 mph 21.9 mph N/A Rain Rain
9:09 AM 39.2 °F 31.2 °F 33.8 °F 81% 30.06 in 6.0 mi West 13.8 mph 32.2 mph N/A Rain Light Rain
10:00 AM 39.2 °F 31.2 °F 33.8 °F 81% 30.07 in 8.0 mi WNW 13.8 mph 23.0 mph N/A Rain Light Rain
11:00 AM 40 °F - 35 °F 74%  in - Calm Calm - -  
11:00 AM 41.0 °F 33.1 °F 33.8 °F 76% 30.09 in 9.0 mi WNW 15.0 mph 27.6 mph N/A   Overcast
11:03 AM 41.0 °F 33.9 °F 35.6 °F 81% 30.09 in 9.0 mi WNW 12.7 mph 24.2 mph N/A Rain Light Rain
12:00 PM 39.2 °F 31.6 °F 33.8 °F 81% 30.10 in 9.0 mi West 12.7 mph 21.9 mph N/A Rain Light Rain
12:29 PM 41.0 °F 35.8 °F 33.8 °F 76% 30.11 in 9.0 mi WNW 8.1 mph - N/A   Overcast
12:38 PM 42.8 °F 35.8 °F 32.0 °F 66% 30.10 in 9.0 mi West 13.8 mph 21.9 mph N/A Rain Light Rain
12:50 PM 42.8 °F 36.2 °F 32.0 °F 66% 30.10 in 9.0 mi WSW 12.7 mph 18.4 mph N/A   Overcast
1:00 PM 42.8 °F 37.5 °F 33.8 °F 70% 30.10 in 9.0 mi WNW 9.2 mph 19.6 mph N/A Rain Light Rain
1:19 PM 42.8 °F 34.8 °F 32.0 °F 66% 30.10 in 9.0 mi West 17.3 mph 26.5 mph N/A   Mostly Cloudy
1:22 PM 41.0 °F 31.9 °F 32.0 °F 70% 30.11 in 9.0 mi WNW 19.6 mph 28.8 mph N/A Rain Light Rain
1:26 PM 41.0 °F 32.8 °F 33.8 °F 76% 30.12 in 5.0 mi West 16.1 mph 28.8 mph N/A Rain Light Rain
1:34 PM 41.0 °F 34.7 °F 35.6 °F 81% 30.11 in 6.0 mi West 10.4 mph 21.9 mph N/A Rain Light Rain
1:36 PM 41.0 °F 33.5 °F 35.6 °F 81% 30.11 in 8.0 mi WSW 13.8 mph 21.9 mph N/A Rain Light Rain
1:46 PM 41.0 °F 36.4 °F 35.6 °F 81% 30.12 in 9.0 mi SW 6.9 mph - N/A   Overcast
2:00 PM 41 °F - 36 °F 77%  in - SSW 6.9 mph - -  
2:00 PM 41.0 °F 35.2 °F 35.6 °F 81% 30.11 in 9.0 mi SW 9.2 mph - N/A   Mostly Cloudy
2:16 PM 42.8 °F 38.0 °F 35.6 °F 76% 30.11 in 9.0 mi SW 8.1 mph - N/A Rain Light Rain
2:53 PM 42.8 °F 38.6 °F 33.8 °F 70% 30.09 in 9.0 mi WSW 6.9 mph - N/A   Overcast
2:55 PM 42.8 °F 38.6 °F 35.6 °F 76% 30.09 in 9.0 mi WSW 6.9 mph - N/A Rain Light Rain
3:00 PM 42.8 °F 40.1 °F 35.6 °F 76% 30.09 in 9.0 mi SSW 4.6 mph - N/A Rain Light Rain
3:07 PM 42.8 °F 38.0 °F 35.6 °F 76% 30.09 in 9.0 mi SSW 8.1 mph - N/A   Overcast
4:00 PM 46.4 °F 39.0 °F 28.4 °F 50% 30.09 in 9.0 mi West 19.6 mph 28.8 mph N/A   Mostly Cloudy
5:00 PM 45 °F - 29 °F 42%  in - Calm Calm - -  
5:00 PM 44.6 °F 39.7 °F 28.4 °F 53% 30.09 in 9.0 mi West 9.2 mph 24.2 mph N/A   Mostly Cloudy
5:10 PM 44.6 °F 39.2 °F 30.2 °F 57% 30.09 in 9.0 mi West 10.4 mph 21.9 mph N/A Rain Light Rain
5:24 PM 44.6 °F 39.7 °F 30.2 °F 57% 30.09 in 9.0 mi West 9.2 mph - N/A   Overcast
5:51 PM 42.8 °F 34.8 °F 30.2 °F 61% 30.09 in 9.0 mi West 17.3 mph 25.3 mph N/A Rain Light Rain
6:00 PM 41.0 °F 34.7 °F 32.0 °F 70% 30.09 in 9.0 mi West 10.4 mph 33.4 mph N/A Rain Light Rain
6:44 PM 39.2 °F 33.0 °F 35.6 °F 87% 30.10 in 9.0 mi West 9.2 mph - N/A Rain Light Rain
7:00 PM 39.2 °F 33.6 °F 35.6 °F 87% 30.10 in 9.0 mi WNW 8.1 mph - N/A Rain Light Rain
7:26 PM 39.2 °F 32.5 °F 35.6 °F 87% 30.08 in 9.0 mi SW 10.4 mph - N/A Rain Light Rain
8:00 PM 38 °F - 36 °F 87%  in - SSW 6.9 mph - -  
8:00 PM 39.2 °F 35.0 °F 35.6 °F 87% 30.08 in 9.0 mi SSW 5.8 mph - N/A Rain Light Rain
9:00 PM 39.2 °F 35.0 °F 35.6 °F 87% 30.08 in 9.0 mi West 5.8 mph - N/A Rain Rain
10:00 PM 39.2 °F 34.2 °F 35.6 °F 87% 30.09 in 9.0 mi WSW 6.9 mph - N/A Rain Light Rain
10:20 PM 39.2 °F 30.8 °F 33.8 °F 81% 30.09 in 5.0 mi West 15.0 mph 24.2 mph N/A Rain Light Rain
10:30 PM 39.2 °F 33.0 °F 35.6 °F 87% 30.10 in 6.0 mi SW 9.2 mph 17.3 mph N/A Rain Light Rain
11:00 PM 38 °F - 36 °F 87%  in - Calm Calm - -  
11:00 PM 37.4 °F 32.1 °F 35.6 °F 93% 30.10 in 9.0 mi West 6.9 mph - N/A Rain Light Rain
11:48 PM 39.2 °F 33.6 °F 35.6 °F 87% 30.09 in 9.0 mi WSW 8.1 mph - N/A   Overcast
11:51 PM 39.2 °F 33.0 °F 33.8 °F 81% 30.08 in 9.0 mi WSW 9.2 mph - N/A Rain Light Rain